Home   Weather   Pelotas   Past weeks

Flag for Brazil Past Weather in Pelotas, Rio Grande do Sul, Brazil — Yesterday and Last 2 Weeks

Now
64 °F

Passing clouds.


Feels Like: 64 °F
Forecast: 67 / 82 °F
Wind: No wind

Location: Pelotas Airport

Current Time: Jan 20, 2017 at 8:03:06 am

Latest Report: Jan 20, 2017 at 7:15 am


Visibility: N/A

Pressure: 30.12 "Hg

Humidity: 100%

Dew Point: 64 °F

Location of PelotasLocation

Past Weather in Pelotas — Graph

°F

Pelotas Temperature Yesterday

Maximum temperature yesterday: 84 °F (at 3:00 pm)
Minimum temperature yesterday: 64 °F (at 7:15 am)
Average temperature yesterday: 78 °F

High & Low Weather Summary for the Past Weeks

 TemperatureHumidityPressure
High99 °F (Jan 13, 3:00 pm)100% (Jan 7, 7:15 am)30.09 "Hg (Jan 7, 7:15 am)
Low63 °F (Jan 12, 7:15 am)33% (Jan 13, 5:00 pm)29.53 "Hg (Jan 17, 6:00 pm)
Average80 °F73%29.84 "Hg
* Reported Jan 5 7:15 am — Jan 20 5:30 am, Pelotas, Weather by CustomWeather, © 2017

Note: Actual official high and low records may vary slightly from our data, if they occured in-between our weather recording intervals... More about our weather records

Advertising

Pelotas Weather History for the Previous 24 Hours

Scroll right to see more
 ConditionsComfort  
Time TempWeatherWind HumidityBarometerVisibility
5:30 am
Fri, Jan 20
64 °FClear.No wind94%30.09 "Hg10 mi
5:00 am64 °FClear.No wind94%30.09 "Hg10 mi
4:40 am64 °FClear.No wind94%30.09 "Hg10 mi
1:00 am68 °FPassing clouds.6 mph88%30.09 "HgN/A
12:00 am70 °FPassing clouds.7 mph83%30.09 "HgN/A
11:25 pm
Thu, Jan 19
70 °FPassing clouds.12 mph83%30.09 "HgN/A
6:45 pm81 °FSunny.15 mph62%30.07 "Hg10 mi
6:00 pm82 °FSunny.15 mph58%30.07 "Hg10 mi
5:00 pm82 °FSunny.9 mph58%30.07 "Hg10 mi
4:00 pm84 °FSunny.10 mph55%30.07 "Hg10 mi
3:00 pm84 °FPassing clouds.12 mph55%30.07 "HgN/A
2:00 pm82 °FPassing clouds.10 mph58%30.07 "HgN/A
1:00 pm82 °FScattered clouds.10 mph55%30.09 "HgN/A
12:00 pm82 °FScattered clouds.10 mph62%30.09 "HgN/A
11:00 am81 °FPartly sunny.10 mph58%30.09 "HgN/A
10:00 am77 °FPartly sunny.3 mph69%30.09 "HgN/A
9:00 am72 °FPartly sunny.1 mph83%30.07 "HgN/A
8:00 am66 °FPassing clouds.No wind94%30.07 "HgN/A
Weather by CustomWeather, © 2017

See weather overviewHow to use our weather pages